National Weather Service Raw Text Product

Displaying AFOS PIL: RWREWX Received: 2018-02-23 16:00 UTC


618 
ASUS44 KEWX 231602
RWREWX
SOUTH TEXAS REGIONAL WEATHER ROUNDUP
NATIONAL WEATHER SERVICE AUSTIN/SAN ANTONIO TX
1000 AM CST FRI FEB 23 2018

NOTE: "FAIR" INDICATED FEW OR NO CLOUDS BELOW 12,000 FEET WITH NO
SIGNIFICANT WEATHER AND/OR OBSTRUCTIONS TO VISIBILITY.

* - THESE STATIONS ARE NOT NWS OR FAA STATIONS...AND ARE NOT SUBJECT
    TO NWS AND FAA QUALITY CONTROL.
 
TXZ171-172-183>190-231700-
TEXAS HILL COUNTRY AND EDWARDS PLATEAU
  
CITY           SKY/WX    TMP DP  RH WIND       PRES   REMARKS
JUNCTION       NOT AVBL                                               
*LLANO         FOG       46  46 100 CALM      30.20F VSB 1/2          
BURNET         CLOUDY    47  46  97 NE6       30.18F WCI  44          
*HORSESHOE BAY FOG       46  46 100 CALM      30.18S VSB 1/4          
*KERRVILLE     RAIN      56  53  92 CALM      30.15S                  
*FREDERICKSBRG DRIZZLE   49  48  97 CALM      30.16S                  
*ROCKSPRINGS   CLOUDY    55  54  94 S9        30.17F FOG              
*BOERNE STAGE  CLOUDY    57  57 100 SE6       30.16S VSB 1/4          
*CASTROVILLE   DRIZZLE   55  55 100 E8        30.16F                  
HONDO          CLOUDY    59  58  96 E6        30.13F FOG              
*UVALDE        DRIZZLE   55  55  99 CALM      30.15S                  
DEL RIO        CLOUDY    55  52  89 E7        30.12F                  
LAUGHLIN AFB   CLOUDY    55  52  90 SE8       30.12F                  
CARRIZO SPRGS  DRIZZLE   54  54 100 E3        30.13S                  
*EAGLE PASS    CLOUDY    54  52  94 E5        30.13F FOG              
*FAITH RANCH   FOG       55  55 100 N3        30.13S VSB 3/4          
$$

TXZ173-191>194-202-209-217>225-228-231700-
CENTRAL AND SOUTH CENTRAL TEXAS
  
CITY           SKY/WX    TMP DP  RH WIND       PRES   REMARKS
GEORGETOWN     CLOUDY    46  45  96 N5        30.21R WCI  44          
AUSTIN/BERGSTM FOG       48  48 100 NE7       30.18S VSB 1/4 WCI  45  
AUSTIN/MABRY   CLOUDY    51  50  96 CALM      30.19R FOG              
*AUSTIN/EXEC   NOT AVBL                                               
*LAGO VISTA    CLOUDY    49  49 100 NE5       30.17S FOG     WCI  48  
SAN MARCOS     FOG       51  51 100 NE6       30.19R VSB 1/4          
NEW BRAUNFELS  FOG       54  54 100 E7        30.15S VSB 1/4          
RANDOLPH AFB   FOG       56  55  98 SE7       30.16R VSB 1/4          
PT SAN ANTONIO FOG       56  55  99 CALM      30.14S VSB 1/2          
SAN ANTONIO    DRZL/FOG  57  56  96 SE6       30.16R VSB 1/16         
STINSON FIELD  FOG       56  55  97 E5        30.14S VSB 3/4          
*LA GRANGE     FOG       56  56 100 CALM      30.15S VSB 1/2          
*GIDDINGS      FOG       45  45  99 CALM      30.17F VSB 1/4          
*GONZALES      FOG       55  55 100 CALM      30.17S VSB 1/4          
$$

TXZ163>164-176>182-195>201-210>213-226-227-235-231700-
SOUTHEAST TEXAS
  
CITY           SKY/WX    TMP DP  RH WIND       PRES   REMARKS
COLLEGE STN    FOG       51  51 100 E8        30.18F VSB 1/2          
*BRYAN         FOG       49  49 100 E3        30.20S VSB 1/2          
*CALDWELL      LGT RAIN  48  47  99 CALM      30.20S VSB 1/4          
*CROCKETT      FOG       54  54 100 E6        30.25F VSB 3/4          
*BRENHAM       FOG       54  54 100 E6        30.19F VSB 1            
HUNTSVILLE     FOG       53  52  96 E5        30.21F VSB 1/4          
CONROE         FOG       64  64 100 E3        30.21S VSB 1/4          
HOUSTON BUSH   PTSUNNY   68  67  96 SE6       30.20F FOG              
HOUSTON HOBBY  PTSUNNY   75  71  87 SE13      30.19S                  
*HOUSTON SW AP CLOUDY    71  71 100 S9        30.20F                  
PEARLAND       PTSUNNY   73  71  93 SE10      30.21F                  
HOUSTON HOOKS  CLOUDY    69  68  96 VRB5      30.19F FOG              
ELLINGTON FLD  PTSUNNY   73  70  88 SE12      30.21F                  
SUGAR LAND     CLOUDY    70  68  93 SE7       30.19S FOG              
*HOUSTON EXEC  FOG       61  61 100 N5        30.20F VSB 1/4          
*CLEVELAND MUN CLOUDY    69  68  98 CALM      30.22F FOG              
*WHARTON       FOG       64  64  98 E5        30.18F VSB 1/4          
*COLUMBUS      FOG       55  53  94 CALM      30.19F VSB 1/4          
*EAGLE LAKE    FOG       59  59 100 E5        30.18F VSB 1/4          
$$

TXZ214>216-236>238-231700-
THE UPPER TEXAS COAST
  
CITY           SKY/WX    TMP DP  RH WIND       PRES   REMARKS
*ORANGE        CLOUDY    74  71  89 SE7       30.25S                  
PORT ARTHUR    PTSUNNY   74  68  81 SE8       30.22S                  
GALVESTON      FOG       71  70  96 E10       30.21F VSB 1/4          
ANGLETON       CLOUDY    73  70  90 SE7       30.19S                  
*BAY CITY      CLOUDY    69  69 100 SE3       30.18F FOG              
PALACIOS       CLOUDY    70  70 100 E6        30.17S FOG              
$$

TXZ229>234-239>247-231700-
TEXAS COASTAL BEND AND RIO GRANDE PLAINS
  
CITY           SKY/WX    TMP DP  RH WIND       PRES   REMARKS
VICTORIA       FOG       59  58  96 NE5       30.17S VSB 1/4          
*BEEVILLE      FOG       58  58 100 E9        30.14F VSB 1/2          
ROCKPORT       CLOUDY    65  64  97 E7        30.15S FOG              
*PORT ARANSAS  NOT AVBL                                               
*PORT LAVACA   FOG       66  65  96 E7        30.16S VSB 1/4          
*INGLESIDE     CLOUDY    63  62  96 MISG      30.15S FOG              
CORPUS CHRISTI LGT RAIN  59  59 100 NE7       30.14S FOG              
CORPUS NAS     CLOUDY    64  64 100 N5        30.14S FOG              
*ROBSTOWN      CLOUDY    58  58 100 NE8       30.14F FOG              
ALICE          CLOUDY    57  56  96 NE7       30.13F FOG              
KINGSVILLE NAS FOG       58  58 100 NE7       30.13F VSB 1/2          
COTULLA        CLOUDY    54  54 100 E6        30.13S FOG              
LAREDO         LGT RAIN  58  57  97 E6        30.12S FOG              
$$

TXZ248>255-231700-
DEEP SOUTH TEXAS
  
CITY           SKY/WX    TMP DP  RH WIND       PRES   REMARKS
BROWNSVILLE    CLOUDY    77  71  82 SE21G28   30.12F                  
PORT ISABEL    CLOUDY    77  68  73 S21G26    30.10F                  
*SOUTH PADRE   NOT AVBL                                               
HARLINGEN      CLOUDY    71  71 100 SE15      30.10F                  
*HEBBRONVILLE  CLOUDY    55  55  99 E7        30.13S FOG              
MCALLEN        FOG       64  64 100 SE7       30.12S VSB 3/4          
*WESLACO       NOT AVBL                                               
FALFURRIAS     CLOUDY    57  55  95 CALM      30.14R                  
EDINBURG       FOG       61  60  96 CALM      30.13R VSB 3/4          
*ZAPATA        CLOUDY    59  59 100 E8        30.10F FOG              
$$

TXZ213>215-236>238-242>244-246-247-251-254-255-231700-
CMAN STATIONS
  
STATION/POSITION TIME  TEMP    WIND        PRES    WAVE
                       AIR SEA DIR/SP/G            HT/PER
                 (UTC) (F)     (DEG/KT/KT) (MB)    (FT/S)
SABINE PASS      1524   69 72  110/  7/ 10 1025.0
SEA RIM ST PARK  1500   68     120/  7/  8 1023.7
NORTH JETTY/GLS  1524      67  100/  8/  9 1022.9
EAGLE POINT      1524   68 70  140/  4/  5 1023.1
MORGANS POINT    1524   68 65  130/  7/  8 1022.9
PORT O'CONNOR    1530   63 63   30/  6/  7 1021.2
MALAQUITE BEACH  1530   89 62  330/  6/  7 1020.2
BAFFIN BAY       1530   59 65  360/  7/  8 1020.6
PORT ISABEL      1530   70 67  150/ 12/ 15 1020.0
$$